Weather History for Durango, CO

Change the Weather History Date:

Monday, February 18, 2013

  Actual Average Record
Temperature  
Mean Temperature 30 °F 29 °F  
Max Temperature 40 °F 43 °F 66 °F (1981)
Min Temperature 20 °F 15 °F -5 °F (1978)
Degree Days  
Heating Degree Days 35 36  
Month to date heating degree days 685 683  
Since 1 July heating degree days 4922 4837  
Cooling Degree Days 0 0  
Month to date cooling degree days 0 0  
Year to date cooling degree days 0 0  
Moisture  
Dew Point 9 °F    
Average Humidity 47    
Maximum Humidity 69    
Minimum Humidity 25    
Precipitation  
Precipitation 0.00 in 0.04 in 1.08 in (1980)
Month to date precipitation 0.13 0.76  
Year to date precipitation 1.87 1.88  
Sea Level Pressure  
Sea Level Pressure 30.05 in    
Wind  
Wind Speed 6 mph (West)    
Max Wind Speed 23 mph    
Max Gust Speed 26 mph    
Visibility 10 miles    
Events      
T = Trace of Precipitation, MM = Missing Value Source: NWS Daily Summary

Daily Weather History Graph

Daily Weather History Graph

Search for Another Location

Airport:

Trip Planner

Search our weather history database for the weather conditions in past years. The results will help you decide how hot, cold, wet, or windy it might be!

Date:

Astronomy

Feb. 18, 2013 Rise Set
Actual Time 6:55 AM MST 5:54 PM MST
Civil Twilight 6:29 AM MST 6:20 PM MST
Nautical Twilight 5:59 AM MST 6:51 PM MST
Astronomical Twilight 5:28 AM MST 7:21 PM MST
Moon 11:46 AM MST (2/18) 1:34 AM MST (2/18)
Length of Visible Light 11h 51m
Length of Day
10h 58m
First Quarter, 59% of the Moon is Illuminated
Feb 18
First Quarter
Feb 25
Full
Mar 4
Last Quarter
Mar 11
New
Mar 19
First Quarter

Hourly Weather History & Observations

Time (MST) Temp. Windchill Dew Point Humidity Pressure Visibility Wind Dir Wind Speed Gust Speed Precip Events Conditions
12:53 AM 34.0 °F 28.0 °F 17.1 °F 50% 29.78 in 10.0 mi West 6.9 mph - N/A   Clear
2:53 AM 28.9 °F 16.9 °F 16.0 °F 58% 29.79 in 10.0 mi West 17.3 mph - N/A   Clear
3:53 AM 28.0 °F 18.6 °F 12.9 °F 53% 29.81 in 10.0 mi West 10.4 mph - N/A   Clear
5:53 AM 23.0 °F - 10.9 °F 60% 29.94 in 10.0 mi Calm Calm - N/A   Clear
6:53 AM 27.0 °F 13.9 °F -0.0 °F 31% 29.96 in 10.0 mi NNW 18.4 mph - N/A   Clear
7:53 AM 28.0 °F - 1.9 °F 33% 30.02 in 10.0 mi Calm Calm - N/A   Clear
8:53 AM 28.0 °F 22.8 °F 7.0 °F 41% 30.07 in 10.0 mi SW 4.6 mph - N/A   Clear
9:53 AM 30.9 °F 22.8 °F 6.1 °F 35% 30.09 in 10.0 mi West 9.2 mph - N/A   Clear
10:53 AM 33.1 °F 28.7 °F 1.9 °F 27% 30.08 in 10.0 mi SW 4.6 mph - N/A   Clear
11:53 AM 35.1 °F 29.3 °F 3.9 °F 27% 30.08 in 10.0 mi Variable 6.9 mph - N/A   Clear
12:53 PM 36.0 °F 33.3 °F 3.9 °F 26% 30.06 in 10.0 mi WSW 3.5 mph - N/A   Clear
1:53 PM 37.9 °F 31.5 °F 9.0 °F 30% 30.06 in 10.0 mi West 9.2 mph 19.6 mph N/A   Clear
2:53 PM 37.9 °F 33.5 °F 6.1 °F 27% 30.04 in 10.0 mi Variable 5.8 mph - N/A   Clear
3:53 PM 39.0 °F 32.8 °F 6.1 °F 26% 30.05 in 10.0 mi SW 9.2 mph - N/A   Clear
4:53 PM 37.9 °F 30.0 °F 9.0 °F 30% 30.08 in 10.0 mi West 12.7 mph - N/A   Clear
5:53 PM 34.0 °F 26.6 °F 8.1 °F 34% 30.12 in 10.0 mi WSW 9.2 mph - N/A   Clear
6:53 PM 30.9 °F 27.5 °F 9.0 °F 40% 30.14 in 10.0 mi SSE 3.5 mph - N/A   Clear
7:53 PM 26.1 °F - 17.1 °F 69% 30.17 in 10.0 mi Calm Calm - N/A   Clear
8:53 PM 27.0 °F 21.6 °F 17.1 °F 66% 30.17 in 10.0 mi North 4.6 mph - N/A   Clear
9:53 PM 24.1 °F - 12.9 °F 62% 30.20 in 10.0 mi Calm Calm - N/A   Clear
10:53 PM 23.0 °F 17.0 °F 14.0 °F 68% 30.19 in 10.0 mi NNE 4.6 mph - N/A   Clear
11:53 PM 21.0 °F - 14.0 °F 74% 30.19 in 10.0 mi Calm Calm - N/A   Clear